Location: Brachstadt
(48.6975°N, 10.6755°E)
Time: 02:28:42
(UTC+00:00)

Tiangong - Visible Passes

Search period start: 07 December 2022 00:00
Search period end: 17 December 2022 00:00
Orbit: 386 x 393 km, 41.5° (Epoch: 06 December)

Date Brightness Start Highest point End Pass type
(mag) Time Alt. Az. Time Alt. Az. Time Alt. Az.
07 Dec 0.0 16:45:03 10° WSW 16:47:35 22° S 16:50:06 10° SE visible
08 Dec 0.4 17:23:52 10° SW 17:25:54 16° SSW 17:27:13 13° SSE visible
09 Dec 0.4 16:25:32 10° WSW 16:27:53 19° S 16:30:13 10° SE visible
10 Dec 0.9 17:04:52 10° SW 17:06:01 12° SSW 17:07:12 10° S visible
11 Dec 0.8 16:06:01 10° SW 16:07:57 15° SSW 16:09:54 10° SSE visible
